Wind_Speed
18 19 20 20 20 21 21 21 21 22 23 22 20 18 19 20 18 18 18 18 18 19 20 20 22 23 24 25 27 28 29 31 32 33 35 36 39 41 43 45 47 48 49 50
20 20 21 21 22 23 23 23 23 24 25 25 23 21 22 22 21 21 20 20 21 22 22 23 24 26 27 29 30 31 32 34 35 36 38 39 41 43 45 47 49 50 51 52
21 21 23 23 23 24 24 25 25 26 27 27 27 23 23 24 23 23 23 23 23 24 25 26 27 28 30 31 33 34 35 37 38 40 41 42 44 46 48 49 51 52 54 55
21 22 24 24 25 27 26 27 28 28 29 29 29 28 19 25 24 24 24 25 25 26 28 29 30 31 32 34 35 37 38 40 41 43 44 45 47 48 50 52 53 54 56 57
23 23 24 25 26 28 29 29 30 31 31 30 30 32 23 25 25 26 27 27 27 29 30 31 32 33 35 37 38 40 41 42 44 45 47 48 49 51 53 54 55 56 58 59
23 24 25 26 27 29 30 31 33 32 32 32 31 33 28 25 27 27 28 29 29 31 32 33 35 36 38 40 41 43 44 45 47 48 49 50 52 53 55 55 56 58 59 61
24 25 27 27 28 29 31 32 35 36 34 33 33 33 29 27 28 29 30 31 32 33 35 36 38 40 41 43 44 46 47 48 49 50 51 52 54 55 56 57 58 59 60 62
25 25 27 28 29 30 31 33 35 39 39 36 35 34 29 28 29 30 31 33 35 37 39 40 42 44 45 46 47 49 50 51 52 52 53 54 55 57 58 58 59 60 62 64
29 28 28 29 31 32 33 33 35 39 41 40 37 35 31 28 27 29 31 34 37 40 42 44 46 47 48 49 50 51 52 53 54 54 55 56 57 58 59 60 61 62 63 65
33 32 29 30 31 32 34 35 36 38 42 44 41 37 33 30 29 30 33 36 39 42 45 47 49 51 52 52 53 53 54 55 55 56 57 58 58 60 61 62 62 64 65 66
35 35 33 32 33 34 35 35 37 40 42 45 47 41 35 35 34 35 36 39 42 45 48 50 52 53 54 55 55 56 56 56 57 58 58 59 60 61 62 63 64 65 66 67
37 38 37 35 34 35 36 37 38 40 43 45 49 47 38 38 39 40 42 43 45 47 49 51 52 54 54 55 56 56 57 57 58 58 59 60 60 61 63 63 65 66 66 67
39 41 41 39 37 38 39 39 39 42 44 45 48 48 42 44 45 45 47 47 48 49 50 51 53 54 54 55 56 56 57 57 58 59 60 60 61 62 63 64 65 66 66 67
42 43 43 43 41 42 43 42 42 43 45 48 49 50 46 47 50 50 50 51 51 52 52 53 54 54 55 55 56 56 57 57 58 59 59 60 61 63 63 64 64 64 65 66
44 46 45 45 44 45 47 46 44 45 45 49 51 52 51 52 54 54 54 55 55 55 55 55 55 55 55 56 56 57 57 58 58 58 59 60 62 62 63 63 63 63 64 65
45 48 48 48 46 48 50 46 44 46 47 50 52 53 51 54 55 57 58 58 58 58 57 57 56 56 56 57 57 57 57 58 58 59 60 61 62 63 63 63 63 63 64 65
46 47 50 51 49 52 50 46 46 47 48 50 52 53 54 56 57 58 59 59 59 58 58 57 56 56 57 57 58 58 58 58 58 59 61 62 62 62 62 63 62 62 63 64
47 48 51 52 52 54 50 49 49 50 50 51 52 54 57 58 58 60 60 60 59 60 59 59 58 58 58 59 59 58 58 58 59 60 61 61 61 61 62 61 61 62 62 62
44 46 49 52 53 54 50 50 53 54 53 52 55 56 58 59 58 59 59 60 61 61 60 60 60 60 60 59 58 58 58 59 59 59 59 60 60 60 60 60 60 59 59 58
41 43 46 49 52 54 51 51 52 54 54 54 55 56 57 58 58 56 56 58 58 59 59 60 60 60 59 58 58 58 58 58 58 58 58 58 58 58 57 58 57 57 57 56
43 45 46 48 51 52 51 52 53 54 55 55 55 56 56 56 56 54 54 54 55 56 57 58 58 58 57 57 57 56 55 56 56 55 55 55 55 55 55 55 54 54 53 53
43 45 46 48 50 49 50 52 53 53 54 54 54 54 54 53 53 53 53 54 54 54 55 56 56 55 54 54 54 53 53 54 53 53 52 52 53 53 53 52 51 51 50 50
44 44 46 48 48 48 49 51 52 52 53 52 52 51 51 51 51 52 52 51 51 51 52 52 51 50 50 51 51 51 51 52 51 50 50 51 52 52 51 50 49 48 48 48
45 45 47 48 47 47 49 50 50 51 51 51 51 51 50 51 51 52 51 50 49 49 48 48 47 46 47 48 49 49 50 50 50 50 51 52 51 51 50 49 48 47 47 46
47 47 49 50 49 49 49 49 50 50 51 51 51 50 50 51 50 49 48 48 48 47 47 47 46 46 45 46 47 48 49 49 50 51 52 52 52 51 51 49 48 47 47 46
46 48 51 52 52 54 51 52 52 53 52 52 51 50 50 50 49 48 48 49 49 49 48 47 46 47 47 47 48 49 51 52 52 53 53 53 52 51 50 49 48 48 47 45
Wind_Direction
277 281 284 288 291 292 292 291 289 287 287 285 284 282 279 278 277 277 279 280 282 283 287 289 291 293 295 298 300 302 305 307 310 312 314 316 317 319 321 322 322 322 322 321
275 279 283 286 289 291 292 292 290 288 287 286 283 283 279 277 278 278 280 281 282 284 286 288 290 292 294 296 299 301 303 306 308 309 311 313 315 317 318 320 320 320 320 320
275 278 281 285 288 289 292 293 292 290 288 287 285 282 280 279 279 281 281 281 282 284 286 288 290 291 293 295 298 300 302 304 306 308 310 311 313 314 316 317 318 319 319 319
278 279 282 286 288 289 292 292 293 292 291 290 289 286 279 282 283 282 281 281 282 283 285 287 289 290 292 294 297 298 300 302 304 306 308 310 311 313 314 315 316 317 318 318
282 282 284 287 289 291 293 292 293 293 293 293 293 290 289 283 282 281 281 282 282 283 285 287 288 290 291 293 295 297 299 301 302 304 306 308 309 311 312 314 314 316 317 317
285 287 288 289 291 293 295 295 294 293 294 295 294 294 296 290 284 282 281 282 281 282 284 285 287 289 290 292 294 296 298 299 300 302 304 306 308 309 311 312 313 314 315 316
286 289 291 292 294 294 296 297 297 296 296 297 297 296 302 298 290 284 282 281 280 281 282 283 285 287 289 290 293 295 296 298 299 301 303 304 306 308 309 311 312 313 314 315
288 289 291 292 294 295 297 298 299 299 299 299 299 301 306 303 295 288 284 282 281 281 281 282 284 286 287 289 292 294 296 297 298 299 301 303 304 306 308 310 311 312 313 314
290 290 291 293 294 296 296 297 297 298 298 299 300 302 306 306 300 293 288 283 281 280 280 282 284 285 287 289 292 294 295 296 297 298 300 302 304 305 307 308 310 311 312 313
291 291 292 293 294 295 296 298 299 298 299 300 300 303 310 312 304 295 287 283 280 279 280 281 284 285 287 289 291 293 295 296 296 298 299 301 302 304 306 308 310 311 311 312
290 291 292 292 292 294 293 294 294 295 296 298 299 301 311 307 302 295 288 284 281 281 282 283 285 287 289 291 292 294 295 295 296 298 299 300 302 304 306 307 308 309 310 312
289 290 291 292 293 293 292 292 293 294 294 296 297 300 307 303 299 294 290 288 287 287 288 289 290 291 292 293 293 294 294 295 296 297 298 300 301 303 304 306 307 309 309 311
288 289 291 291 292 291 291 292 292 292 293 295 295 298 302 301 298 296 295 294 293 293 293 293 293 293 294 294 294 294 294 295 295 296 298 299 301 302 304 305 307 308 309 311
288 288 290 292 293 291 291 291 292 293 295 293 294 295 296 296 294 294 295 295 295 296 296 296 296 296 297 296 296 295 295 295 296 297 298 299 300 302 303 305 307 308 310 312
287 288 289 289 290 290 289 291 294 295 295 293 295 294 297 296 295 296 296 297 297 297 298 298 298 298 298 298 297 296 296 296 296 297 298 299 300 302 304 305 307 308 310 312
287 288 289 289 290 289 289 293 295 293 293 292 292 293 294 293 294 295 296 297 298 299 299 299 300 300 300 299 299 298 297 296 296 297 298 299 300 302 304 305 307 309 310 312
286 288 289 290 290 288 290 294 293 292 291 291 292 293 293 293 294 295 296 297 298 299 300 300 301 301 301 300 299 299 298 297 297 297 298 299 301 303 304 306 308 309 310 312
291 291 291 292 293 292 296 296 296 293 292 293 293 292 292 293 294 295 296 298 299 300 301 301 301 301 301 300 300 299 299 298 298 299 300 301 302 303 305 306 308 309 311 312
291 291 292 294 295 297 300 299 296 295 294 295 293 293 293 294 294 295 297 298 299 300 300 301 301 301 300 299 299 299 299 299 301 301 301 302 303 305 306 307 308 310 311 312
294 293 293 295 296 298 303 300 298 297 297 296 295 295 296 296 296 297 296 297 297 298 299 299 300 300 299 298 298 299 300 301 302 302 303 303 303 304 306 307 309 310 311 312
298 297 297 297 297 300 302 300 300 299 300 298 298 297 297 298 299 299 299 300 300 299 299 300 300 300 300 299 299 300 301 302 303 303 304 304 304 305 306 308 310 311 311 312
299 299 299 299 300 303 302 301 300 299 299 299 299 299 299 300 300 301 302 302 302 302 301 301 301 301 301 300 300 300 301 303 304 305 305 305 305 306 307 308 310 311 313 313
297 299 299 300 302 302 301 299 299 299 300 300 299 300 300 300 301 302 303 304 304 305 304 304 304 304 303 302 301 301 302 303 304 305 306 306 307 307 308 309 310 311 313 313
296 297 297 297 300 299 298 298 299 299 300 301 301 300 300 301 303 304 304 305 306 307 307 307 307 307 306 305 304 304 304 304 305 306 307 307 307 307 307 308 309 310 312 314
298 297 295 296 297 296 297 297 297 298 299 299 299 300 301 302 303 304 305 305 306 308 308 308 308 308 308 307 307 306 305 305 306 307 307 307 307 306 306 307 307 309 311 312
296 294 293 293 293 293 295 294 295 296 297 297 298 298 299 300 301 303 303 304 306 307 307 308 308 308 308 308 308 307 307 307 307 306 306 307 306 305 305 304 305 306 308 309
Height
5861 5861 5859 5857 5856 5854 5852 5850 5848 5847 5844 5843 5842 5842 5841 5838 5837 5836 5834 5833 5831 5829 5827 5826 5823 5821 5818 5816 5813 5809 5805 5801 5797 5792 5787 5782 5777 5771 5765 5759 5752 5746 5739 5732
5858 5857 5855 5853 5851 5850 5847 5846 5844 5842 5839 5838 5838 5838 5837 5834 5833 5832 5830 5828 5826 5825 5823 5820 5818 5815 5813 5810 5806 5802 5798 5794 5789 5785 5780 5775 5769 5763 5756 5750 5743 5736 5729 5721
5853 5853 5850 5849 5847 5845 5843 5841 5839 5837 5835 5833 5832 5834 5833 5830 5828 5827 5825 5823 5821 5819 5817 5814 5812 5809 5806 5803 5799 5795 5791 5786 5781 5777 5772 5766 5760 5754 5747 5741 5734 5726 5719 5711
5849 5848 5846 5845 5842 5840 5839 5836 5833 5831 5829 5828 5827 5826 5830 5825 5823 5821 5819 5817 5815 5813 5811 5808 5805 5802 5799 5795 5792 5788 5783 5778 5773 5768 5762 5757 5751 5745 5738 5731 5724 5716 5708 5700
5845 5844 5842 5840 5838 5835 5833 5831 5828 5826 5824 5823 5821 5818 5824 5821 5818 5815 5813 5811 5809 5806 5804 5801 5798 5795 5791 5787 5784 5779 5774 5770 5764 5759 5753 5747 5741 5735 5728 5720 5713 5705 5697 5689
5841 5839 5837 5836 5833 5830 5828 5825 5823 5820 5818 5818 5816 5813 5816 5815 5812 5809 5807 5804 5801 5799 5796 5793 5789 5786 5783 5778 5774 5770 5765 5760 5754 5749 5743 5737 5731 5724 5717 5709 5702 5694 5686 5677
5837 5835 5832 5830 5828 5826 5823 5820 5816 5813 5812 5811 5809 5807 5810 5807 5804 5801 5799 5796 5793 5790 5787 5784 5780 5777 5773 5769 5765 5760 5755 5750 5744 5739 5733 5726 5720 5713 5706 5698 5690 5682 5674 5665
5831 5831 5828 5825 5823 5820 5818 5815 5811 5806 5804 5803 5802 5800 5804 5801 5796 5793 5790 5787 5784 5781 5777 5774 5770 5767 5763 5759 5754 5749 5744 5739 5733 5727 5721 5715 5709 5701 5694 5686 5679 5670 5662 5653
5824 5825 5823 5820 5817 5815 5812 5809 5806 5801 5796 5794 5794 5794 5796 5793 5789 5785 5781 5778 5774 5770 5766 5763 5759 5755 5751 5748 5743 5738 5733 5727 5722 5716 5710 5704 5697 5689 5682 5674 5666 5658 5649 5640
5817 5818 5818 5815 5812 5809 5806 5802 5799 5794 5789 5785 5785 5786 5787 5784 5780 5777 5772 5767 5763 5759 5755 5751 5747 5743 5740 5736 5731 5726 5721 5715 5710 5704 5698 5691 5685 5677 5670 5662 5654 5645 5636 5627
5811 5810 5810 5809 5806 5803 5800 5797 5792 5787 5784 5778 5773 5779 5780 5774 5769 5765 5761 5756 5752 5748 5744 5740 5736 5732 5728 5724 5719 5714 5708 5703 5697 5691 5685 5679 5672 5664 5657 5649 5641 5632 5623 5614
5804 5802 5801 5801 5799 5795 5792 5789 5785 5781 5777 5772 5765 5768 5770 5764 5758 5753 5749 5746 5741 5737 5734 5729 5725 5721 5716 5711 5706 5701 5696 5690 5684 5678 5672 5666 5659 5651 5644 5636 5628 5619 5610 5601
5796 5794 5792 5792 5793 5787 5783 5780 5777 5773 5769 5764 5758 5759 5759 5752 5746 5741 5737 5734 5730 5726 5722 5718 5713 5709 5704 5699 5694 5688 5682 5677 5671 5665 5659 5652 5645 5638 5630 5623 5615 5606 5597 5588
5787 5786 5784 5782 5780 5776 5773 5771 5768 5764 5760 5754 5750 5747 5748 5741 5735 5731 5727 5723 5719 5714 5710 5706 5701 5696 5691 5686 5680 5675 5669 5663 5657 5651 5645 5638 5631 5624 5617 5609 5601 5593 5584 5575
5778 5776 5774 5772 5770 5766 5762 5761 5759 5754 5750 5744 5740 5736 5734 5728 5722 5718 5714 5710 5706 5702 5697 5693 5688 5683 5678 5672 5667 5661 5655 5649 5643 5637 5631 5624 5617 5610 5603 5596 5588 5580 5571 5562
5768 5765 5762 5761 5760 5755 5751 5753 5750 5744 5739 5733 5728 5725 5723 5716 5711 5706 5701 5697 5693 5688 5684 5679 5675 5670 5664 5658 5653 5647 5641 5635 5629 5623 5617 5610 5603 5596 5589 5582 5574 5566 5558 5549
5759 5755 5751 5748 5748 5742 5742 5745 5739 5734 5729 5723 5717 5715 5709 5704 5699 5694 5689 5684 5679 5675 5670 5666 5661 5656 5650 5644 5638 5633 5627 5620 5614 5608 5602 5596 5589 5582 5575 5568 5561 5553 5544 5536
5747 5744 5739 5735 5733 5728 5734 5730 5725 5719 5716 5712 5705 5701 5695 5691 5686 5680 5675 5670 5665 5660 5656 5651 5647 5642 5636 5630 5624 5618 5612 5606 5600 5594 5588 5582 5575 5569 5562 5554 5547 5539 5531 5523
5738 5734 5728 5724 5718 5715 5719 5717 5709 5704 5702 5698 5691 5686 5682 5677 5673 5668 5662 5657 5651 5646 5642 5637 5632 5627 5622 5616 5609 5604 5598 5592 5585 5579 5573 5567 5561 5554 5548 5541 5534 5526 5518 5510
5729 5724 5720 5714 5708 5704 5708 5702 5694 5690 5687 5682 5676 5672 5667 5663 5658 5657 5651 5645 5640 5634 5629 5623 5618 5612 5607 5601 5595 5589 5584 5578 5572 5565 5560 5553 5547 5540 5534 5527 5520 5513 5506 5498
5717 5712 5709 5703 5696 5694 5694 5688 5682 5678 5675 5668 5663 5658 5654 5649 5644 5640 5636 5631 5626 5621 5615 5608 5602 5597 5591 5585 5580 5575 5570 5564 5558 5552 5546 5540 5533 5527 5521 5514 5508 5501 5493 5486
5706 5701 5697 5692 5687 5686 5680 5674 5669 5665 5660 5655 5650 5645 5640 5636 5631 5626 5622 5617 5612 5606 5600 5594 5588 5583 5577 5570 5565 5561 5556 5550 5544 5539 5532 5526 5520 5514 5507 5501 5495 5488 5481 5474
5695 5692 5686 5682 5680 5675 5668 5661 5657 5652 5647 5643 5638 5634 5629 5624 5619 5614 5609 5604 5598 5593 5587 5580 5574 5569 5564 5557 5551 5547 5542 5537 5531 5525 5519 5513 5507 5501 5494 5488 5482 5476 5469 5462
5685 5680 5675 5671 5670 5663 5657 5650 5645 5640 5635 5631 5626 5622 5616 5611 5607 5601 5596 5591 5585 5579 5573 5567 5562 5556 5551 5545 5539 5533 5528 5524 5518 5512 5506 5500 5494 5488 5482 5476 5470 5464 5458 5451
5673 5668 5662 5659 5656 5651 5647 5639 5634 5629 5625 5620 5615 5610 5605 5600 5594 5589 5584 5578 5572 5567 5561 5555 5550 5545 5539 5534 5528 5521 5516 5511 5506 5500 5493 5487 5481 5475 5469 5463 5458 5452 5446 5440
5662 5654 5648 5645 5641 5635 5634 5628 5622 5617 5613 5608 5603 5598 5593 5588 5583 5578 5572 5566 5561 5555 5549 5544 5539 5533 5528 5522 5516 5510 5504 5498 5492 5486 5480 5474 5468 5462 5456 5450 5445 5439 5434 5428